sat.trackr.live / text

‹ back to catalog

COSMOS 2502

NORAD 40358 · 2014-086A

PAYLOAD ACTIVE UNKNOWN

§ Identity

Operator
Country
CIS
Launch date
2014-12-25
Launch site
PLMSC
Launch vehicle
Mass (kg)
RCS (m²)
12.93

External: N2YO · Heavens-Above · Gunter

§ Orbital elements

Epoch: 2026-09-13T05:19:11.876736Z

Period
103.02 min
Inclination
67.1537°
Eccentricity
0.0006017
Mean motion
13.97831520 rev/d
Perigee alt
896.9 km
Apogee alt
905.7 km
Semi-major
7,279.5 km
B*
-1.2027e-5
RAAN
152.9147°
Arg perigee
244.5520°
Mean anomaly
115.4943°
Rev number
59,625

§ Raw data

COSMOS 25021 40358U 14086A   26256.22166524 -.00000092  00000+0 -12027-4 0  99962 40358  67.1537 152.9147 0006017 244.5520 115.4943 13.97831520596259

JSON: /api/v1/satellites/40358 · /tle

For live sub-satellite position, see the globe view (requires WebGL).

§ Visibility from observer

Set your observer location to see the next 7 days of passes ≥ 10°. The values pass through the URL so the page stays shareable.

No JS? Fill the form by hand. The geolocation button needs JavaScript.